[[{"header":{"parameterUnit":"m.s-1","parameterCategory":1,"la1":30.2991,"la2":30.254,"lo1":-89.0895,"lo2":-89.0444,"dy":0.0017,"dx":0.0017,"nx":28,"ny":28,"refTime":"2024-05-19T09:00:00:Z","depth":0,"parameterNumber":2,"parameterNumberName":"U-component_of_WINDS"},"data":[0,0,0,0,0,0,0,0,0,0,0,0,0,0,0,0,0,0,0,0,0,0,0,0,0,0,0,0,0,0,0,0,0,0,0,0,0,0,0,0,0,0,0,0,0,0,0,0,0,0,0,0,0,0,0,0,0,0,1.0578,1.0579,0,1.064,1.0641,1.0642,1.0657,1.0656,1.0656,1.0656,1.0721,1.0723,1.0725,0,0,0,0,0,0,0,0,0,0,0,0,0,1.0473,1.0475,1.0578,1.0579,1.058,1.064,1.0641,1.0642,1.0657,1.0656,1.0656,1.0656,1.072,1.0722,1.0725,0,0,0,0,0,0,0,0,0,0,0,0,0,1.0525,1.0475,1.0578,1.0595,1.0597,1.064,1.0641,1.0642,1.0657,1.0656,1.0656,1.0655,1.0719,1.0722,1.0725,1.0757,0,0,1.0735,1.0736,0,0,0,0,0,0,0,0,1.0522,1.0529,1.0591,1.0594,1.0596,1.064,1.0628,1.0681,1.0657,1.0634,1.0656,1.0655,1.0694,1.07,1.0713,1.076,1.0763,1.0735,1.0737,1.0738,1.0739,0,0,0,0,0,0,0,1.0518,1.0526,1.0603,1.0592,1.0595,1.0599,1.0606,1.0638,1.0667,1.0636,1.0637,1.0644,1.0696,1.071,1.0714,1.0764,1.0735,1.0738,1.074,1.0741,1.0839,1.0839,0,0,0,0,0,0,1.0512,1.0523,1.0601,1.0605,1.0557,1.0601,1.0609,1.0627,1.0667,1.0672,1.0645,1.0645,1.0704,1.0711,1.0717,1.0755,1.0738,1.0741,1.0743,1.0838,1.0839,1.084,0,0,0,0,0,0,1.051,1.0519,1.0598,1.0564,1.0575,1.0604,1.0624,1.0628,1.0642,1.0673,1.0679,1.0654,1.0704,1.0712,1.0746,1.0758,1.0743,1.0746,1.0837,1.0838,1.0839,1.0833,0,0,0,0,0,0,1.0506,1.0518,1.053,1.0564,1.0577,1.0627,1.0624,1.063,1.0647,1.0648,1.0683,1.0688,1.0704,1.0742,1.0749,1.0762,1.0748,1.0836,1.0838,1.0839,1.0833,1.0834,1.0835,0,0,0,0,0,1.0503,1.0527,1.0531,1.054,1.0593,1.0628,1.0635,1.0652,1.0648,1.0661,1.0681,1.0687,1.0755,1.0745,1.0754,1.0767,1.0836,1.0837,1.0839,1.0832,1.0834,1.0835,0,0,0,0,0,0,1.0494,1.0532,1.0537,1.0573,1.0597,1.063,1.0647,1.0654,1.068,1.0679,1.0701,1.0708,1.0741,1.0758,1.0746,1.0799,1.0795,1.0799,1.0787,1.0789,1.079,1.0785,1.0751,0,0,0,0,0,1.0496,1.0521,1.0553,1.0582,1.0593,1.0618,1.0634,1.0645,1.0671,1.0682,1.0704,1.0729,1.0756,1.0774,1.08,1.0835,1.0842,1.0849,1.085,1.0851,1.0853,1.0871,1.0874,1.0845,1.0845,1.0845,0,0,1.0501,1.0525,1.054,1.058,1.0601,1.0626,1.0627,1.0654,1.0672,1.0686,1.0719,1.0736,1.0766,1.08,1.0816,1.0815,1.0863,1.0853,1.0853,1.0855,1.0873,1.0876,1.0879,1.0846,1.0846,1.0845,0,0,1.0523,1.0544,1.0569,1.0589,1.0619,1.0635,1.064,1.0673,1.0684,1.0718,1.0728,1.0751,1.0797,1.0817,1.0833,1.0861,1.0867,1.0869,1.0875,1.0893,1.0895,1.0897,1.0906,1.0909,1.0871,1.0871,1.0871,0,1.0525,1.0564,1.0581,1.0607,1.0624,1.0637,1.0662,1.0681,1.0718,1.0729,1.0728,1.0785,1.0806,1.0844,1.085,1.0863,1.087,1.0865,1.0893,1.0896,1.0898,1.0906,1.091,1.0871,1.0871,1.0871,1.0871,0,1.0564,1.0591,1.0608,1.0642,1.0661,1.0687,1.0708,1.0725,1.0734,1.075,1.0783,1.0809,1.084,1.085,1.086,1.0889,1.0887,1.0889,1.0885,1.09,1.0909,1.0912,1.0871,1.0871,1.0871,1.0871,0,0,1.0583,1.0626,1.0631,1.0646,1.068,1.07,1.0726,1.0756,1.077,1.0795,1.0816,1.0854,1.0856,1.0874,1.0886,1.0901,1.092,1.0901,1.0902,1.0903,1.0952,1.095,1.0953,1.0924,1.0925,1.0926,1.0949,0,1.0608,1.0654,1.0669,1.0707,1.0731,1.0743,1.0765,1.0787,1.0803,1.0825,1.0842,1.0868,1.0869,1.088,1.0895,1.0914,1.093,1.0913,1.0944,1.0945,1.0936,1.0958,1.0956,1.0977,1.0953,1.0953,1.0954,0,1.0643,1.0667,1.0707,1.0736,1.0746,1.0766,1.0794,1.0815,1.0841,1.085,1.087,1.0881,1.0908,1.0902,1.0939,1.0927,1.0941,1.0952,1.0953,1.0956,1.095,1.0961,1.0985,1.0987,1.0959,1.0959,1.0958,0,1.0651,1.0694,1.0722,1.0735,1.077,1.0783,1.0798,1.0823,1.0839,1.0864,1.0874,1.0902,1.0916,1.0937,1.0955,1.0949,1.0989,1.0986,1.0998,1.0997,1.1006,1.1005,1.1031,1.1016,1.1016,1.1016,1.1016,0,1.0676,1.07,1.0726,1.0744,1.077,1.0788,1.0814,1.083,1.0851,1.0872,1.0884,1.0904,1.0926,1.0948,1.0962,1.0989,1.0996,1.1005,1.1008,1.1003,1.1002,1.1012,1.1011,1.1017,1.1016,1.1016,1.1016,0,1.0689,1.0708,1.074,1.077,1.0778,1.0796,1.0821,1.0838,1.0854,1.088,1.0887,1.0911,1.0937,1.0957,1.0991,1.1001,1.103,1.1034,1.1021,1.1022,1.1033,1.1031,1.1066,1.1071,1.1053,1.1053,1.1053,0,1.0704,1.0722,1.0753,1.0768,1.0782,1.0806,1.0822,1.084,1.0856,1.0886,1.0899,1.0926,1.0949,1.0991,1.1011,1.1037,1.1042,1.1052,1.1046,1.104,1.1041,1.1039,1.104,1.1053,1.1053,1.1053,1.1053,0,1.0728,1.0735,1.0758,1.0784,1.0802,1.0824,1.0845,1.0856,1.0878,1.0896,1.0922,1.094,1.0974,1.1001,1.1028,1.1044,1.1052,1.1055,1.1059,1.1054,1.1045,1.1049,1.1022,1.1054,1.1054,1.1054,1.1054,1.1053,1.0741,1.0757,1.0781,1.0806,1.0823,1.0843,1.086,1.0877,1.0899,1.0928,1.0938,1.0965,1.0989,1.1027,1.1043,1.1064,1.1064,1.107,1.1071,1.1072,1.1071,1.1042,1.1069,1.1069,1.1069,1.1069,1.1069,0,1.0764,1.078,1.0802,1.0831,1.085,1.0855,1.0879,1.0894,1.0918,1.0939,1.0961,1.0991,1.1016,1.1038,1.1065,1.1077,1.1082,1.1084,1.1083,1.1086,1.1071,1.1064,1.108,1.108,1.108,1.108,1.108,1.108,1.0778,1.0805,1.0816,1.0852,1.0867,1.0893,1.0906,1.0924,1.0941,1.0973,1.0994,1.1008,1.103,1.1057,1.1081,1.1087,1.1095,1.1096,1.1103,1.1088,1.1087,1.1086,1.108,1.1098,1.1098,1.1116,1.1116,1.1117]},{"header":{"parameterUnit":"m.s-1","parameterCategory":1,"la1":30.2991,"la2":30.254,"lo1":-89.0895,"lo2":-89.0444,"dy":0.0017,"dx":0.0017,"nx":28,"ny":28,"refTime":"2024-05-19T09:00:00:Z","depth":0,"parameterNumber":3,"parameterNumberName":"V-component_of_WINDS"},"data":[0,0,0,0,0,0,0,0,0,0,0,0,0,0,0,0,0,0,0,0,0,0,0,0,0,0,0,0,0,0,0,0,0,0,0,0,0,0,0,0,0,0,0,0,0,0,0,0,0,0,0,0,0,0,0,0,0,0,2.1805,2.1806,0,2.1895,2.1896,2.1897,2.1927,2.1926,2.1926,2.1926,2.2012,2.2014,2.2017,0,0,0,0,0,0,0,0,0,0,0,0,0,2.1654,2.1657,2.1805,2.1806,2.1808,2.1895,2.1896,2.1897,2.1927,2.1926,2.1926,2.1925,2.2011,2.2014,2.2017,0,0,0,0,0,0,0,0,0,0,0,0,0,2.1729,2.1658,2.1805,2.1833,2.1836,2.1894,2.1896,2.1897,2.1927,2.1926,2.1926,2.1925,2.201,2.2014,2.2018,2.2053,0,0,2.203,2.2031,0,0,0,0,0,0,0,0,2.1725,2.1735,2.1828,2.1831,2.1835,2.1899,2.1874,2.1949,2.1927,2.1892,2.1925,2.1925,2.1974,2.1981,2.1999,2.2057,2.2061,2.203,2.2032,2.2034,2.2035,0,0,0,0,0,0,0,2.172,2.1731,2.1841,2.1829,2.1834,2.1839,2.1849,2.1889,2.1935,2.1895,2.1898,2.1908,2.1976,2.1995,2.2001,2.2062,2.203,2.2033,2.2036,2.2037,2.215,2.2151,0,0,0,0,0,0,2.1711,2.1727,2.1838,2.1843,2.1778,2.1842,2.1853,2.1879,2.1935,2.1943,2.1908,2.1909,2.1989,2.1997,2.2004,2.2048,2.2034,2.2038,2.204,2.215,2.215,2.2151,0,0,0,0,0,0,2.1707,2.172,2.1834,2.1786,2.1801,2.1845,2.1874,2.1881,2.19,2.1945,2.1953,2.192,2.1989,2.1999,2.204,2.2051,2.204,2.2043,2.2149,2.215,2.2151,2.2136,0,0,0,0,0,0,2.1703,2.1719,2.1734,2.1786,2.1803,2.1871,2.1875,2.1883,2.1907,2.1909,2.1957,2.1965,2.1989,2.2034,2.2044,2.2057,2.2046,2.2148,2.2149,2.215,2.2136,2.2137,2.2137,0,0,0,0,0,2.1697,2.1726,2.1735,2.1748,2.1824,2.1871,2.1881,2.191,2.1908,2.1923,2.1951,2.1963,2.2049,2.2038,2.205,2.2064,2.2148,2.2149,2.215,2.2136,2.2136,2.2137,0,0,0,0,0,0,2.1674,2.1734,2.1744,2.1791,2.1826,2.1876,2.1896,2.191,2.1945,2.1945,2.1977,2.1987,2.2026,2.2049,2.2036,2.2099,2.2098,2.2102,2.2083,2.2084,2.2085,2.2079,2.205,0,0,0,0,0,2.1674,2.171,2.1759,2.1795,2.1813,2.1851,2.1873,2.1892,2.1929,2.1943,2.1975,2.2009,2.2043,2.2065,2.2099,2.2139,2.2149,2.2154,2.2154,2.2155,2.2157,2.2178,2.2181,2.2156,2.2156,2.2156,0,0,2.1675,2.1712,2.1732,2.1792,2.1821,2.1855,2.1863,2.1899,2.1924,2.1948,2.199,2.2014,2.2053,2.2094,2.2113,2.2114,2.2166,2.2156,2.2156,2.2159,2.218,2.2182,2.2184,2.2157,2.2156,2.2156,0,0,2.1694,2.1726,2.176,2.1789,2.1833,2.1859,2.1866,2.1914,2.1932,2.1974,2.1992,2.2021,2.208,2.2107,2.2128,2.2155,2.2166,2.2165,2.2168,2.2188,2.219,2.2192,2.22,2.2203,2.2167,2.2167,2.2167,0,2.1689,2.1743,2.1774,2.1809,2.1834,2.1858,2.189,2.1916,2.1969,2.1984,2.1985,2.2058,2.2087,2.2133,2.2139,2.2156,2.2164,2.216,2.2187,2.219,2.2192,2.22,2.2203,2.2167,2.2167,2.2167,2.2167,0,2.1734,2.1771,2.1792,2.1844,2.187,2.1904,2.1937,2.196,2.1976,2.2,2.2041,2.2076,2.2117,2.2129,2.2145,2.2177,2.2176,2.2181,2.2181,2.2193,2.2201,2.2205,2.2166,2.2166,2.2166,2.2166,0,0,2.1742,2.181,2.1817,2.184,2.189,2.1918,2.1951,2.1992,2.201,2.2045,2.2072,2.2121,2.2125,2.215,2.2168,2.2185,2.2203,2.2189,2.219,2.2189,2.2239,2.2234,2.2238,2.221,2.2211,2.2212,2.2235,0,2.1767,2.183,2.1858,2.1907,2.194,2.1962,2.199,2.2023,2.2046,2.2075,2.21,2.2133,2.2138,2.2152,2.2171,2.2197,2.2213,2.2195,2.2234,2.2235,2.2224,2.2242,2.2238,2.2258,2.2238,2.2239,2.2239,0,2.1805,2.1841,2.1894,2.1939,2.1953,2.1979,2.2018,2.2047,2.2083,2.2098,2.2124,2.2141,2.2174,2.2171,2.2216,2.2204,2.2221,2.2236,2.2237,2.2242,2.2238,2.2247,2.2266,2.2268,2.2245,2.2245,2.2244,0,2.1805,2.1866,2.1905,2.1924,2.1977,2.1994,2.2017,2.2053,2.2075,2.2108,2.2123,2.2158,2.2178,2.2204,2.223,2.2226,2.2271,2.2271,2.2283,2.2283,2.2292,2.2291,2.2314,2.2304,2.2304,2.2304,2.2304,0,2.183,2.1861,2.1906,2.193,2.1964,2.1994,2.2027,2.2051,2.2082,2.2109,2.213,2.2154,2.2187,2.2215,2.2235,2.2268,2.2277,2.2288,2.2293,2.2287,2.2285,2.2298,2.2298,2.2304,2.2304,2.2304,2.2304,0,2.1835,2.1867,2.1911,2.1957,2.197,2.1993,2.2032,2.2054,2.2078,2.2112,2.2121,2.2157,2.2191,2.2219,2.2263,2.2276,2.2311,2.2317,2.2299,2.2302,2.2312,2.2311,2.2344,2.2349,2.2336,2.2336,2.2336,0,2.1849,2.1874,2.1923,2.1943,2.1966,2.1999,2.2022,2.2051,2.2074,2.2116,2.2133,2.2169,2.2199,2.2251,2.228,2.2313,2.232,2.2329,2.2325,2.2317,2.2319,2.2317,2.2319,2.2329,2.2329,2.2329,2.2329,0,2.187,2.1884,2.1918,2.1956,2.1983,2.2014,2.2045,2.206,2.2095,2.2119,2.2155,2.2178,2.2223,2.2258,2.2294,2.2314,2.2327,2.233,2.2335,2.2328,2.2317,2.2323,2.23,2.233,2.233,2.233,2.233,2.233,2.188,2.1902,2.194,2.1976,2.2003,2.2031,2.2055,2.2081,2.2112,2.2152,2.2167,2.2203,2.2235,2.2286,2.2306,2.2333,2.2335,2.2341,2.2343,2.2344,2.2343,2.2313,2.234,2.234,2.234,2.234,2.234,0,2.1901,2.1926,2.1959,2.2003,2.203,2.2041,2.2076,2.2097,2.2129,2.216,2.2189,2.2229,2.2262,2.2293,2.2327,2.2342,2.2349,2.235,2.2349,2.2353,2.234,2.2333,2.2344,2.2344,2.2344,2.2344,2.2344,2.2344,2.1916,2.1954,2.1972,2.2022,2.2046,2.2083,2.2102,2.2127,2.2152,2.2196,2.2224,2.2244,2.2274,2.231,2.234,2.2348,2.2359,2.2359,2.2368,2.2355,2.2354,2.2354,2.2347,2.2361,2.2361,2.2379,2.2379,2.2379]}]]